This demonstration page uses our WeatherBlox Daily Observations layout. Learn more.

Left ArrowRight Arrow

34.74481, -87.66753

Hourly Observations for April 13, 2021

Temp ( °F °C ) Dew Point ( °F °C ) Humidity (%) Winds ( mph kmh ) Pressure ( in mb ) Visibility ( mi km ) Precip ( " mm )
12:53 am 00:53 Clear 59 15 54 12.2 83 83 Calm 29.96 1015 10 16 0.00 0.00
1:53 am 01:53 Clear 58 14.4 52 11.1 81 81 Calm 29.95 1014 10 16 0.00 0.00
2:53 am 02:53 Clear 57 13.9 52 11.1 83 83 Calm 29.95 1014 10 16 0.00 0.00
3:53 am 03:53 Clear 54 12.2 49 9.4 83 83 E 3 6 29.95 1014 9 14 0.00 0.00
4:53 am 04:53 Clear 56 13.3 52 11.1 87 87 Calm 29.96 1015 10 16 0.00 0.00
5:53 am 05:53 Clear 58 14.4 53 11.7 84 84 Calm 29.99 1016 10 16 0.00 0.00
6:53 am 06:53 Sunny 57 13.9 53 11.7 87 87 Calm 30.01 1016 7 11 0.00 0.00
7:53 am 07:53 Sunny 60 15.6 54 12.2 80 80 Calm 30.03 1017 9 14 0.00 0.00
8:53 am 08:53 Sunny 65 18.3 56 13.3 73 73 Calm 30.04 1017 10 16 0.00 0.00
9:53 am 09:53 Sunny 71 21.7 57 13.9 61 61 Calm 30.05 1018 10 16 0.00 0.00
10:53 am 10:53 Sunny 76 24.4 54 12.2 47 47 Calm 30.05 1018 10 16 0.00 0.00
11:53 am 11:53 Sunny 79 26.1 54 12.2 42 42 VRB 3 6 30.03 1017 10 16 0.00 0.00
12:53 pm 12:53 Sunny 81 27.2 52 11.1 37 37 E 3 6 30.01 1016 10 16 0.00 0.00
1:53 pm 13:53 Sunny 82 27.8 54 12.2 38 38 Calm 30.00 1016 10 16 0.00 0.00
2:53 pm 14:53 Sunny 84 28.9 48 8.9 29 29 WSW 6 9 29.97 1015 10 16 0.00 0.00
3:53 pm 15:53 Sunny 83 28.3 44 6.7 25 25 SW 10 17 29.98 1015 10 16 0.00 0.00
4:53 pm 16:53 Mostly Sunny 81 27.2 49 9.4 33 33 SW 5 7 29.98 1015 10 16 0.00 0.00
5:53 pm 17:53 Sunny 79 26.1 49 9.4 35 35 SSW 5 7 29.98 1015 10 16 0.00 0.00
6:53 pm 18:53 Sunny 74 23.3 50 10 43 43 WNW 3 6 30.00 1016 10 16 0.00 0.00
7:53 pm 19:53 Clear 72 22.2 45 7.2 38 38 NW 5 7 30.02 1017 10 16 0.00 0.00
8:53 pm 20:53 Clear 66 18.9 50 10 56 56 WSW 3 6 30.05 1018 10 16 0.00 0.00
9:53 pm 21:53 Clear 66 18.9 52 11.1 61 61 W 6 9 30.06 1018 10 16 0.00 0.00
10:53 pm 22:53 Clear 61 16.1 52 11.1 72 72 SE 3 6 30.04 1017 10 16 0.00 0.00
11:53 pm 23:53 Clear 60 15.6 53 11.7 78 78 Calm 30.04 1017 10 16 0.00 0.00

Powered by AerisWeather